CW5752 Weather Reports


Display with metric or nautical units.
time (UTC)temp
F
wind
direction
speed
MPH
gust
MPH
rain 1hr
in
rain 24hr
in
rain mn
in
humidity
%
barometer
mb
20260902185023 96 202 1.0 6.0 0.00 0.00 0.00 47 1015.9
20260902184029 97 200 2.0 6.0 0.00 0.00 0.00 45 1016.0
20260902183022 97 211 2.0 5.0 0.00 0.00 0.00 45 1016.0
20260902182022 97 203 1.0 8.0 0.00 0.00 0.00 47 1016.1
20260902181017 97 249 2.0 6.0 0.00 0.00 0.00 47 1016.2
20260902180020 96 187 1.0 7.0 0.00 0.00 0.00 45 1016.3
20260902175022 96 226 2.0 5.0 0.00 0.00 0.00 48 1016.5
20260902174023 96 208 3.0 11.0 0.00 0.00 0.00 46 1016.6
20260902173027 96 230 1.0 6.0 0.00 0.00 0.00 46 1016.7
20260902172024 96 228 1.0 6.0 0.00 0.00 0.00 46 1016.7
20260902171023 96 208 1.0 6.0 0.00 0.00 0.00 49 1016.9
20260902170018 96 229 2.0 6.0 0.00 0.00 0.00 50 1016.9
20260902165047 95 217 3.0 10.0 0.00 0.00 0.00 48 1017.0
20260902164022 95 201 2.0 6.0 0.00 0.00 0.00 50 1017.2
20260902163022 94 195 2.0 6.0 0.00 0.00 0.00 52 1017.1
20260902162022 93 199 1.0 6.0 0.00 0.00 0.00 53 1017.3
20260902161023 93 191 2.0 8.0 0.00 0.00 0.00 55 1017.4
20260902160017 92 218 1.0 7.0 0.00 0.00 0.00 55 1017.5
20260902155017 92 187 1.0 7.0 0.00 0.00 0.00 56 1017.5
20260902154022 91 199 2.0 6.0 0.00 0.00 0.00 57 1017.4
20260902153022 91 199 1.0 6.0 0.00 0.00 0.00 60 1017.5
20260902152022 90 189 2.0 5.0 0.00 0.00 0.00 60 1017.6
20260902151022 89 200 3.0 6.0 0.00 0.00 0.00 61 1017.7
20260902150022 88 203 2.0 5.0 0.00 0.00 0.00 64 1017.6
20260902145017 88 205 1.0 4.0 0.00 0.00 0.00 65 1017.7
20260902144023 87 180 1.0 4.0 0.00 0.00 0.00 66 1017.6
20260902143042 86 183 2.0 5.0 0.00 0.00 0.00 68 1017.6
20260902142027 85 198 1.0 3.0 0.00 0.00 0.00 70 1017.7
20260902141023 84 210 1.0 4.0 0.00 0.00 0.00 72 1017.8
20260902140022 83 234 0.0 3.0 0.00 0.00 0.00 75 1017.8
20260902135017 83 215 0.0 3.0 0.00 0.00 0.00 76 1017.9
20260902134017 82 190 0.0 3.0 0.00 0.00 0.00 78 1017.8
20260902133022 81 190 0.0 3.0 0.00 0.00 0.00 79 1017.8
20260902132022 80 189 0.0 2.0 0.00 0.00 0.00 80 1017.9
20260902131022 79 189 0.0 4.0 0.00 0.00 0.00 83 1017.7
20260902130027 77 0.0 0.0 0.00 0.00 0.00 86 1017.7
20260902125022 76 0.0 0.0 0.00 0.00 0.00 88 1017.6
20260902124017 75 0.0 0.0 0.00 0.00 0.00 90 1017.6
20260902123020 74 0.0 0.0 0.00 0.00 0.00 92 1017.6
20260902122022 73 0.0 0.0 0.00 0.00 0.00 92 1017.7
20260902121042 73 0.0 0.0 0.00 0.00 0.00 93 1017.5
20260902120022 72 0.0 0.0 0.00 0.00 0.00 93 1017.3
20260902115022 72 0.0 0.0 0.00 0.00 0.00 93 1017.2
20260902114027 72 0.0 0.0 0.00 0.00 0.00 93 1017.1
20260902113017 72 0.0 0.0 0.00 0.00 0.00 93 1017.0
20260902112027 72 0.0 0.0 0.00 0.00 0.00 93 1017.0
20260902111022 72 0.0 0.0 0.00 0.00 0.00 93 1016.8
20260902110023 72 0.0 0.0 0.00 0.00 0.00 93 1016.8
20260902105022 72 0.0 0.0 0.00 0.00 0.00 93 1016.6
20260902104027 72 0.0 0.0 0.00 0.00 0.00 93 1016.6
20260902103037 72 0.0 0.0 0.00 0.00 0.00 93 1016.5
20260902102017 72 0.0 0.0 0.00 0.00 0.00 93 1016.5
20260902101022 72 0.0 0.0 0.00 0.00 0.00 93 1016.4
20260902100022 72 0.0 0.0 0.00 0.00 0.00 92 1016.5
20260902095022 72 0.0 0.0 0.00 0.00 0.00 90 1016.5
20260902094020 74 0.0 0.0 0.00 0.00 0.00 92 1016.5
20260902093023 73 0.0 0.0 0.00 0.00 0.00 92 1016.5
20260902092017 73 0.0 0.0 0.00 0.00 0.00 92 1016.5
20260902091022 73 0.0 0.0 0.00 0.00 0.00 92 1016.4
20260902090042 73 0.0 0.0 0.00 0.00 0.00 92 1016.3
20260902085022 74 0.0 0.0 0.00 0.00 0.00 92 1016.3
20260902084023 73 0.0 0.0 0.00 0.00 0.00 92 1016.3
20260902083022 73 0.0 0.0 0.00 0.00 0.00 92 1016.3
20260902082018 73 0.0 0.0 0.00 0.00 0.00 91 1016.3
20260902081037 73 0.0 0.0 0.00 0.00 0.00 91 1016.3
20260902080022 74 0.0 0.0 0.00 0.00 0.00 90 1016.3
20260902075022 74 0.0 0.0 0.00 0.00 0.00 91 1016.3
20260902074027 74 0.0 0.0 0.00 0.00 0.00 91 1016.3
20260902073042 73 0.0 0.0 0.00 0.00 0.00 90 1016.3
20260902072027 73 0.0 0.0 0.00 0.00 0.00 90 1016.3
20260902071037 74 0.0 0.0 0.00 0.00 0.00 90 1016.3
20260902070022 75 0.0 0.0 0.00 0.00 0.00 91 1016.4
20260902065022 74 0.0 0.0 0.00 0.00 0.00 89 1016.4
20260902064042 75 0.0 0.0 0.00 0.00 0.00 87 1016.4
20260902063027 76 0.0 0.0 0.00 0.00 0.00 90 1016.4
20260902062022 75 0.0 0.0 0.00 0.00 0.00 91 1016.4
20260902061023 74 0.0 0.0 0.00 0.00 0.00 89 1016.3
20260902060017 75 0.0 0.0 0.00 0.00 0.00 89 1016.3
20260902055042 75 0.0 0.0 0.00 0.00 0.00 90 1016.3
20260902054022 75 0.0 0.0 0.00 0.00 0.00 88 1016.3
20260902053023 76 0.0 0.0 0.00 0.00 0.00 88 1016.2
20260902052022 76 0.0 0.0 0.00 0.00 0.00 87 1016.2
20260902051022 76 0.0 0.0 0.00 0.00 0.00 87 1016.1
20260902050017 77 0.0 0.0 0.00 0.00 0.00 87 1016.2
20260902045021 77 0.0 0.0 0.00 0.00 0.00 88 1016.1
20260902044021 77 0.0 0.0 0.00 0.00 0.00 88 1016.1
20260902043020 77 0.0 0.0 0.00 0.00 0.00 87 1016.0
20260902042015 77 0.0 0.0 0.00 0.00 0.00 87 1016.0
20260902041021 77 0.0 0.0 0.00 0.00 0.00 85 1016.0
20260902040040 78 0.0 0.0 0.00 0.00 0.00 86 1015.9
20260902035040 78 0.0 0.0 0.00 0.00 0.00 86 1015.9
20260902034021 78 0.0 0.0 0.00 0.00 0.00 84 1016.0
20260902033030 78 0.0 0.0 0.00 0.00 0.00 84 1016.0
20260902032015 78 0.0 0.0 0.00 0.00 0.00 85 1016.1
20260902031016 79 0.0 0.0 0.00 0.00 0.00 84 1016.0
20260902030020 79 0.0 0.0 0.00 0.00 0.00 83 1016.0
20260902025021 79 0.0 0.0 0.00 0.00 0.00 83 1015.9
20260902024021 79 0.0 0.0 0.00 0.00 0.00 82 1015.8
20260902023020 80 0.0 0.0 0.00 0.00 0.00 82 1015.8
20260902022021 80 0.0 0.0 0.00 0.00 0.00 80 1015.8
20260902021015 81 0.0 0.0 0.00 0.00 0.00 79 1015.7
20260902020020 81 0.0 0.0 0.00 0.00 0.00 79 1015.6
20260902015022 80 0.0 0.0 0.00 0.00 0.00 78 1015.4
20260902014021 81 0.0 0.0 0.00 0.00 0.00 77 1015.3
20260902013020 82 0.0 0.0 0.00 0.00 0.00 77 1015.3
20260902012101 82 0.0 0.0 0.00 0.00 0.00 75 1015.2
20260902011016 83 0.0 0.0 0.00 0.00 0.00 74 1015.1
20260902010015 84 0.0 0.0 0.00 0.00 0.00 71 1015.1
20260902005020 84 0.0 0.0 0.00 0.00 0.00 70 1015.0
20260902004021 84 0.0 0.0 0.00 0.00 0.00 71 1015.1
20260902003021 85 0.0 0.0 0.00 0.00 0.00 71 1015.1
20260902002020 85 0.0 0.0 0.00 0.00 0.00 70 1015.1
20260902001042 86 0.0 0.0 0.00 0.00 0.00 68 1015.1
20260902000016 88 0.0 0.0 0.00 0.00 0.00 65 1015.1
20260901235020 90 0.0 1.0 0.00 0.00 0.00 60 1015.2
20260901234021 91 0.0 0.0 0.00 0.00 0.00 59 1015.2
20260901233020 92 0.0 2.0 0.00 0.00 0.00 55 1015.2
20260901232021 93 189 0.0 2.0 0.00 0.00 0.00 51 1015.3
20260901231101 94 189 0.0 2.0 0.00 0.00 0.00 48 1015.2
20260901230015 94 186 0.0 5.0 0.00 0.00 0.00 48 1015.3
20260901225016 95 199 0.0 6.0 0.00 0.00 0.00 47 1015.3
20260901224020 95 178 1.0 7.0 0.00 0.00 0.00 47 1015.3
20260901223021 95 189 0.0 2.0 0.00 0.00 0.00 48 1015.2
20260901222021 95 202 0.0 6.0 0.00 0.00 0.00 47 1015.2
20260901221020 95 155 0.0 8.0 0.00 0.00 0.00 47 1015.1
20260901220021 96 173 0.0 3.0 0.00 0.00 0.00 47 1015.0
20260901215015 96 172 0.0 6.0 0.00 0.00 0.00 44 1015.1
20260901214020 96 0.0 2.0 0.00 0.00 0.00 46 1015.1
20260901213021 96 163 0.0 2.0 0.00 0.00 0.00 47 1015.1
20260901212020 96 187 0.0 5.0 0.00 0.00 0.00 46 1015.2
20260901211020 97 181 0.0 4.0 0.00 0.00 0.00 44 1015.3
20260901210020 96 180 0.0 4.0 0.00 0.00 0.00 45 1015.3
20260901205020 96 177 0.0 4.0 0.00 0.00 0.00 46 1015.4
20260901204015 97 153 0.0 3.0 0.00 0.00 0.00 46 1015.6
20260901203020 97 182 1.0 5.0 0.00 0.00 0.00 47 1015.6
20260901202020 96 199 1.0 6.0 0.00 0.00 0.00 45 1015.7
20260901201020 97 181 0.0 3.0 0.00 0.00 0.00 44 1015.8
20260901200020 96 166 1.0 6.0 0.00 0.00 0.00 45 1015.9
20260901195020 96 192 1.0 5.0 0.00 0.00 0.00 47 1015.9
20260901194016 95 194 0.0 2.0 0.00 0.00 0.00 46 1016.1
20260901193016 96 157 0.0 5.0 0.00 0.00 0.00 43 1016.2
20260901192020 96 207 1.0 5.0 0.00 0.00 0.00 46 1016.3
20260901191020 95 272 2.0 7.0 0.00 0.00 0.00 47 1016.4
20260901190020 97 207 1.0 6.0 0.00 0.00 0.00 48 1016.5